Weather History for Meadville, PA

Change the Weather History Date:

Sunday, March 11, 2012

  Actual Average Record
Temperature  
Mean Temperature 50 °F -  
Max Temperature 63 °F 44 °F 69 °F (1973)
Min Temperature 36 °F 21 °F -8 °F (1960)
Degree Days  
Heating Degree Days 16    
Moisture  
Dew Point 22 °F    
Average Humidity 36    
Maximum Humidity 48    
Minimum Humidity 23    
Precipitation  
Precipitation 0.00 in - - ()
Sea Level Pressure  
Sea Level Pressure 30.36 in    
Wind  
Wind Speed 8 mph (SSW)    
Max Wind Speed 15 mph    
Max Gust Speed 22 mph    
Visibility 10 miles    
Events      
Averages and records for this station are not official NWS values.
T = Trace of Precipitation, MM = Missing Value Source: NWS Daily Summary

Daily Weather History Graph

Daily Weather History Graph

Search for Another Location

Airport:

Trip Planner

Search our weather history database for the weather conditions in past years. The results will help you decide how hot, cold, wet, or windy it might be!

Date:

Astronomy

Mar. 11, 2012 Rise Set
Actual Time 7:38 AM EDT 7:23 PM EDT
Civil Twilight 7:10 AM EDT 7:51 PM EDT
Nautical Twilight 6:38 AM EDT 8:23 PM EDT
Astronomical Twilight 6:06 AM EDT 8:55 PM EDT
Moon 11:50 PM EDT (3/11) 9:09 AM EDT (3/11)
Length of Visible Light 12h 40m
Length of Day
11h 44m
Waning Gibbous, 85% of the Moon is Illuminated
Mar 11
Waning Gibbous
Mar 14
Last Quarter
Mar 22
New
Mar 30
First Quarter
Apr 6
Full

Hourly Weather History & Observations

Time (EDT) Temp. Windchill Dew Point Humidity Pressure Visibility Wind Dir Wind Speed Gust Speed Precip Events Conditions
12:53 AM 36.0 °F 30.3 °F 17.1 °F 46% 30.38 in 10.0 mi South 6.9 mph - N/A   Clear
1:53 AM 36.0 °F 29.6 °F 17.1 °F 46% 30.39 in 10.0 mi South 8.1 mph - N/A   Clear
3:53 AM 37.0 °F 31.0 °F 17.1 °F 44% 30.39 in 10.0 mi South 8.1 mph - N/A   Clear
4:53 AM 36.0 °F 29.6 °F 18.0 °F 48% 30.39 in 10.0 mi South 8.1 mph - N/A   Clear
5:53 AM 36.0 °F 29.6 °F 17.1 °F 46% 30.39 in 10.0 mi South 8.1 mph - N/A   Clear
6:53 AM 36.0 °F 30.3 °F 17.1 °F 46% 30.40 in 10.0 mi South 6.9 mph - N/A   Clear
7:53 AM 36.0 °F 29.6 °F 17.1 °F 46% 30.41 in 10.0 mi South 8.1 mph - N/A   Clear
8:53 AM 37.9 °F 31.5 °F 18.0 °F 45% 30.42 in 10.0 mi South 9.2 mph - N/A   Clear
9:53 AM 42.1 °F 36.6 °F 19.9 °F 41% 30.43 in 10.0 mi South 9.2 mph - N/A   Clear
10:53 AM 48.0 °F - 21.0 °F 34% 30.43 in 10.0 mi SSW 9.2 mph - N/A   Clear
11:53 AM 52.0 °F - 21.9 °F 31% 30.41 in 10.0 mi WSW 8.1 mph - N/A   Clear
12:53 PM 55.0 °F - 24.1 °F 30% 30.39 in 10.0 mi SW 8.1 mph - N/A   Clear
1:53 PM 57.9 °F - 25.0 °F 28% 30.36 in 10.0 mi SSW 9.2 mph - N/A   Clear
2:53 PM 61.0 °F - 26.1 °F 26% 30.35 in 10.0 mi SSW 8.1 mph 17.3 mph N/A   Clear
3:53 PM 63.0 °F - 25.0 °F 24% 30.32 in 10.0 mi SSW 15.0 mph 21.9 mph N/A   Clear
4:53 PM 62.1 °F - 25.0 °F 24% 30.30 in 10.0 mi SW 9.2 mph 19.6 mph N/A   Clear
5:53 PM 62.1 °F - 24.1 °F 23% 30.30 in 10.0 mi SW 6.9 mph - N/A   Clear
6:53 PM 60.1 °F - 25.0 °F 26% 30.30 in 10.0 mi SSW 5.8 mph - N/A   Clear
7:53 PM 55.9 °F - 25.0 °F 30% 30.30 in 10.0 mi SSW 5.8 mph - N/A   Clear
8:53 PM 55.0 °F - 25.0 °F 31% 30.30 in 10.0 mi SSW 4.6 mph - N/A   Clear
9:53 PM 55.0 °F - 26.1 °F 33% 30.31 in 10.0 mi South 4.6 mph - N/A   Clear
10:53 PM 53.1 °F - 26.1 °F 35% 30.30 in 10.0 mi South 5.8 mph - N/A   Clear
11:53 PM 52.0 °F - 26.1 °F 37% 30.29 in 10.0 mi South 4.6 mph - N/A   Clear
12:53 AM 51.1 °F - 26.1 °F 38% 30.29 in 10.0 mi South 3.5 mph - N/A   Clear